www.pogodaiklimat.ru
Время
(UTC), дата
21 24.05
00 25.05
03 25.05
06 25.05
09 25.05
12 25.05
15 25.05
18 25.05
21 25.05
00 26.05
03 26.05
06 26.05
09 26.05
12 26.05
15 26.05
18 26.05
21 26.05
00 27.05
03 27.05
06 27.05
09 27.05
12 27.05
15 27.05
18 27.05
21 27.05
00 28.05
03 28.05
06 28.05
09 28.05
12 28.05
15 28.05
18 28.05
21 28.05
00 29.05
03 29.05
06 29.05
09 29.05
12 29.05
15 29.05
18 29.05
21 29.05
00 30.05
03 30.05
06 30.05
09 30.05
12 30.05
15 30.05
18 30.05
21 30.05
00 31.05
03 31.05
06 31.05
09 31.05
12 31.05
15 31.05
18 31.05
Ветер
(напр.,м/с)
Видим. Явления Облачность Т
(С)
Тd
(С)
f
(%)
Тe
(С)
Тes
(С)
Комфортность P
(гПа)
Po
(гПа)
Тmin
(С)
Tmax
(С)
R
(мм)
R24
(мм)
S
(см)
штиль 0 10 км 4/0
[Ac trans Ci fib]
+5.6 +4.1 90 +5 +5 холодно 1020.6 995.3
С 1 10 км 3/0
[Ac trans]
+3.2 +3.2 100 +1 +1 очень
холодно
1021.3 995.8
штиль 0 10 км 4/0
[Ac trans]
+6.2 +5.2 93 +5 +6 холодно 1022.1 996.9 +2.5
ЮЗ 3 10 км 3/0
[Cc]
+14.3 +3.8 49 +14 +21 по сезону 1022.6 998.0 +2.5
ЮЗ 2 10 км 6/4 1000 м
[Cu hum Ci fib]
+17.2 +1.8 35 +18 +26 по сезону 1023.1 998.7
ЮЗ 3 10 км 8/6 600 м
[Cb calv Ac trans]
+17.6 +1.3 33 +18 +20 по сезону 1023.3 999.0
ЮЗ 2 10 км 9/8 600 м
[Cb calv Ci fib]
+17.8 +1.6 34 +18 +19 по сезону 1024.2 999.9
Ю 1 10 км 3/0
[Ci fib]
+13.9 +3.4 49 +14 +14 по сезону 1025.9 1001.2 +19.3
СВ 1 10 км ясно +7.6 +4.9 83 +7 +7 холодно 1027.2 1002.0
СВ 1 10 км ясно +5.6 +4.8 95 +4 +4 прохладно 1028.0 1002.6
СВ 1 10 км 9/0
[Ac trans Ci fib]
+6.2 +5.0 92 +5 +6 холодно 1028.6 1003.2 +5.0
СВ 1 10 км 10/4 600 м
[Cb calv Ac und]
+12.6 +6.7 67 +13 +15 по сезону 1028.0 1003.2 +5.0
С 1 10 км 10/3 600 м
[Cb calv Ac trans Ci fib]
+16.3 +6.7 53 +17 +24 тепло 1027.8 1003.3
С 3 10 км 10/8 600 м
[Cb calv Ac trans Ci fib]
+15.5 +6.9 57 +15 +16 прохладно 1026.5 1001.9
С 2 10 км {ливн. осадки} 10/9 600 м
[Cb calv Ac und]
+14.3 +7.6 64 +14 +14 по сезону 1025.8 1001.2 1
СВ 1 10 км {ливн. осадки} 10/10 600 м
[Cb calv]
+12.2 +7.2 71 +12 +12 по сезону 1026.0 1001.3 +16.7 1
СВ 1 10 км слаб. ливневой дождь 10/10 600 м
[Cb calv]
+10.2 +8.3 88 +10 +10 по сезону 1025.5 1000.6
С 1 10 км слаб. ливневой дождь 10/10 600 м
[Cb calv]
+9.4 +9.2 99 +9 +9 по сезону 1025.0 1000.0
С 1 10 км {ливн. осадки} 10/10 600 м
[Cb calv]
+9.4 +8.9 97 +9 +9 по сезону 1025.0 1000.0 +8.9 2
СВ 1 10 км {ливн. осадки} 8/3 600 м
[Cb calv Ac trans Ci fib]
+11.6 +9.1 85 +11 +16 по сезону 1024.8 1000.0 +8.9 2
С 1 10 км 8/6 600 м
[Cb calv Ac trans]
+15.4 +6.6 56 +16 +21 тепло 1024.3 999.9
Ю 1 10 км 9/8 600 м
[Cb calv Ac trans]
+15.0 +6.9 58 +16 +18 по сезону 1024.3 999.8
Ю 1 10 км 6/3 1000 м
[Cu med, cong Ac trans Ci fib]
+17.1 +6.9 51 +18 +20 тепло 1023.4 999.1
штиль 0 10 км 4/3 1000 м
[Sc Ac trans]
+11.7 +7.8 77 +11 +11 по сезону 1024.4 999.6 +17.6
штиль 0 10 км 8/0
[Ac trans]
+9.8 +7.4 85 +9 +9 по сезону 1025.2 1000.2
штиль 0 10 км ясно +7.1 +6.9 99 +6 +6 по сезону 1025.1 999.9
В 1 10 км ясно +9.4 +8.2 92 +9 +10 по сезону 1024.9 999.9 +5.9
ЮВ 2 10 км 6/0
[Ci fib]
+16.2 +7.7 57 +16 +24 тепло 1024.4 1000.0 +5.9
Ю 2 10 км 8/4 1000 м
[Cu hum Cc]
+17.1 +8.2 56 +17 +26 тепло 1023.6 999.3
Ю 2 10 км 8/6 1000 м
[Cu med, cong Cc]
+18.5 +6.4 45 +19 +24 тепло 1022.6 998.4
Ю 2 10 км 9/3 1000 м
[Cu hum Ac trans]
+17.2 +7.3 52 +18 +19 тепло 1021.8 997.6
В 1 10 км 9/0
[Ac trans Ci fib]
+15.2 +8.5 64 +16 +16 тепло 1021.1 996.7 +18.8
СВ 2 10 км {ливн. осадки} 9/0
[Ac trans Ci fib]
+12.6 +9.2 80 +12 +12 тепло 1020.0 995.4
СВ 3 10 км {ливн. осадки} 8/0
[Ac trans]
+13.8 +8.6 71 +13 +13 тепло 1017.3 992.8
СВ 2 4000 м слаб. ливневой дождь 10/9 600 м
[Cb calv Ac trans]
+12.7 +11.2 91 +12 +12 тепло 1015.8 991.4 +12.4 1
В 2 4000 м слаб. ливневой дождь {гроза} 10/10 600 м
[Cb calv]
+14.2 +13.9 98 +14 +14 тепло 1014.9 990.6 +12.4 8
СВ 1 4000 м {ливн. осадки} 10/10 600 м
[Cb calv]
+15.8 +15.4 97 +16 +16 тепло 1015.3 991.2
С 1 10 км в посл. час ливневой дождь 10/10 600 м
[Cb calv]
+17.6 +16.7 94 +19 +19 тепло 1014.6 990.7
СВ 3 10 км 9/6 1000 м
[Sc Ac trans Ci fib]
+19.9 +15.5 76 +22 +23 комфорт 1012.4 988.6 10
СВ 2 10 км гроза без осадков {ливн. осадки} 10/10 600 м
[Cb cap]
+17.7 +15.0 84 +18 +18 тепло 1012.1 988.2 +20.0 3
С 4 10 км {гроза} 6/0
[Ac trans Ci fib]
+15.5 +14.5 94 +14 +14 тепло 1011.9 987.8
СВ 3
{11}
10 км {гроза} 3/0
[Ac trans]
+14.1 +13.5 96 +13 +13 тепло 1011.5 987.3
СВ 3 10 км 4/0
[Ac trans Ci fib]
+14.1 +13.0 93 +13 +14 по сезону 1010.6 986.4 +13.7 0.0
СВ 3 10 км 6/0
[Ac trans Ci fib]
+20.2 +13.3 65 +23 +28 комфорт 1008.3 984.7 +13.7
СВ 5-10
{10}
10 км 9/0
[Ac trans Ci fib]
+24.2 +13.6 52 +26 +32 жарко 1006.8 983.5
СВ 4-10
{12}
10 км 10/4 600 м
[Cb calv Ac trans Ci fib]
+24.6 +9.3 38 +25 +28 комфорт 1005.2 981.9
Ю 4
{11}
10 км слаб. ливневой дождь 10/10 600 м
[Cb calv]
+18.9 +14.0 73 +20 +20 тепло 1006.4 982.7 0.0
штиль 0 10 км слаб. ливневой дождь 10/10 600 м
[Cb calv]
+15.5 +15.1 97 +15 +15 по сезону 1007.7 983.7 +25.5 3
Ю 2 10 км {ливн. осадки} 8/4 600 м
[Cb calv Ci fib]
+14.5 +13.6 94 +14 +14 по сезону 1008.7 984.6
ЮВ 1 10 км {ливн. осадки} 3/3 600 м
[Cb calv]
+11.9 +10.6 92 +12 +12 по сезону 1008.4 984.0
штиль 0 10 км 9/8 600 м
[Sc Ci fib]
+12.7 +11.2 91 +12 +12 по сезону 1007.6 983.4 +11.6 4
ЮЗ 2 10 км 9/3 1000 м
[Cu hum Ac trans Ci fib]
+17.2 +13.6 79 +18 +21 тепло 1006.7 982.8 +11.6 1
З 3 10 км гроза, ливневой дождь 9/9 600 м
[Cb cap]
+16.3 +10.7 69 +16 +17 прохладно 1006.6 982.7
С 2 4000 м слаб. ливневой дождь, в посл. час гроза 10/10 600 м
[Cb cap]
+13.1 +12.4 96 +12 +12 очень
холодно
1006.6 983.0
С 3
{10}
4000 м слаб. ливневой дождь 10/10 600 м
[Cb calv]
+10.7 +9.3 91 +9 +9 очень
холодно
1008.4 983.9 15
С 4
{11}
10 км слаб. ливневой дождь 10/10 600 м
[Cb calv]
+9.4 +8.8 96 +6 +6 очень
холодно
1009.3 984.7 +18.9 17
Местоположение метеостанции Тула (Тульская область, Россия): широта 54.23 долгота 37.62 высота над уровнем моря 205 м.
В архиве по умолчанию представлена погода в Туле за последнюю неделю. Архивные данные за месяц целиком и за предыдущие месяцы, начиная с января 2011 года, Вы можете получить, выбрав интересующий диапазон дат из раскрывающегося списка и нажав кнопку "Найти!".
*Определитесь, кто Вы:
Внимание! Время в таблицах - всемирное. Для получения местного времени необходимо прибавить поправку, которая равна 3 ч.
Смотрите также архив погоды в соседних городах и на ближайших метеорологических станциях:
Партнеры нашего сайта:      
Пояснения к столбцам:
  • Ветер - указаны скорость ветра в м/с - средняя за 10 мин, порывы в срок и между сроками (в фигурных скобках) и направление, откуда дует ветер: С - северный,
  • СВ - северо-восточный, В - восточный, ЮВ - юго-восточный, Ю - южный, ЮЗ - юго-западный, З - западный, СЗ - северо-западный.
  • Видимость - горизонтальная дальность видимости в метрах или километрах. При видимости от 1 до 10 км при отсутствии осадков обычно наблюдается дымка, при ухудшении видимости до 1 км и менее - туман. В сухую погоду видимость может ухудшаться дымом, пылью или мглою.
  • Явления - указаны атмосферные явления, наблюдавшиеся в срок или в последний час перед сроком; фигурными скобками обозначены явления, наблюдавшиеся между сроками (за 1-3 часа до срока); квадратными скобками обозначены град или гололедные отложения с указанием их диаметра в мм.
  • Облачность - указаны через наклонную черту общая и нижняя облачность в баллах и высота нижней границы облаков в метрах; квадратными скобками обозначены формы облаков: Ci - перистые, Cs - перисто-слоистые, Cc - перисто-кучевые, Ac - высококучевые, As - высокослоистые, Sc - слоисто-кучевые, Ns - слоисто-дождевые, Cu - кучевые, Cb - кучево-дождевые. Подробнее классификацию облаков см. в Атласе облаков (PDF).
  • T - Температура воздуха - температура, измеренная на высоте 2 м над землей.
  • Td - Температура точки росы - температура, при понижении до которой содержащийся в воздухе водяной пар достигнет насыщения.
  • f - Относительная влажность воздуха - влажноcть воздуха, измеренная на высоте 2 м над землей.
  • Te - Эффективная температура - температура, которую ощущает одетый по сезону человек в тени. Характеристика душности погоды. При расчете учитывается влияние влажности воздуха и скорости ветра на теплоощущения человека.
  • Tes - Эффективная температура на солнце - температура, которую ощущает человек, с поправкой на солнечный нагрев. Характеристика знойности погоды. Зависит от высоты солнца над горизонтом, облачности и скорости ветра. Ночью, в пасмурную погоду, а также при ветре 12 м/с и более поправка равна нулю.
  • P - Атмосферное давление - приведенное к уровню моря атмосферное давление.
  • Po - Атмосферное давление - измеренное на уровне метеостанции атмосферное давление.
  • Tmin - Минимальная температура - минимум температуры воздуха на высоте 2 м над землей.
  • Tmax - Максимальная температура - максимум температуры воздуха на высоте 2 м над землей.
  • R - Количество осадков - Количество выпавших осадков за период времени, мм. При наведении курсора мыши на число - период времени, за который выпало указанное количество осадков.
  • R24 - Количество осадков - Количество выпавших осадков за 24 часа, мм.
  • S - Снежный покров - Высота снежного покрова, см. При наведении курсора мыши на число - состояние снежного покрова и степень покрытия местности в баллах.